TimeAKST,TemperatureF,Dew PointF,Humidity,Sea Level PressureIn,VisibilityMPH,Wind Direction,Wind SpeedMPH,Gust SpeedMPH,PrecipitationIn,Events,Conditions,WindDirDegrees,DateUTC
12:53 AM,-5.1,-8.0,87,30.78,1.5,Calm,Calm,-,N/A,,Overcast,0,2012-01-16 09:53:00
1:10 AM,-7.6,-9.4,92,30.76,1.5,East,3.5,-,N/A,,Scattered Clouds,90,2012-01-16 10:10:00
1:51 AM,-11.2,-14.8,84,30.76,4.0,East,3.5,-,N/A,,Mostly Cloudy,80,2012-01-16 10:51:00
1:53 AM,-11.9,-16.1,82,30.78,4.0,Calm,Calm,-,N/A,,Mostly Cloudy,0,2012-01-16 10:53:00
2:05 AM,-11.2,-14.8,84,30.76,4.0,Calm,Calm,-,N/A,,Scattered Clouds,0,2012-01-16 11:05:00
3:16 AM,-13.0,-18.4,77,30.76,10.0,Calm,Calm,-,N/A,Fog,Partly Cloudy,0,2012-01-16 12:16:00
3:53 AM,-13.0,-18.0,78,30.77,10.0,Calm,Calm,-,N/A,,Partly Cloudy,0,2012-01-16 12:53:00
4:32 AM,-11.2,-18.4,70,30.75,10.0,East,4.6,-,N/A,,Haze,90,2012-01-16 13:32:00
4:53 AM,-9.0,-15.0,75,30.77,3.0,Calm,Calm,-,N/A,,Mostly Cloudy,0,2012-01-16 13:53:00
4:57 AM,-9.4,-14.8,77,30.75,0.8,Calm,Calm,-,N/A,,Overcast,0,2012-01-16 13:57:00
5:02 AM,-9.4,-13.0,84,30.75,0.8,Calm,Calm,-,N/A,,Mist,0,2012-01-16 14:02:00
5:08 AM,-9.4,-11.2,92,30.75,0.2,East,3.5,-,N/A,Fog,Light Freezing Fog,90,2012-01-16 14:08:00
5:35 AM,-7.6,-11.2,84,30.75,0.5,Calm,Calm,-,N/A,Fog,Light Freezing Fog,0,2012-01-16 14:35:00
5:42 AM,-7.6,-11.2,84,30.74,1.0,East,3.5,-,N/A,,Mostly Cloudy,80,2012-01-16 14:42:00
5:50 AM,-9.4,-14.8,77,30.74,3.0,East,4.6,-,N/A,,Partly Cloudy,90,2012-01-16 14:50:00
5:53 AM,-9.9,-15.0,78,30.75,4.0,East,4.6,-,N/A,,Partly Cloudy,80,2012-01-16 14:53:00
6:00 AM,-11.2,-16.6,77,30.73,9.0,ENE,3.5,-,N/A,,Partly Cloudy,70,2012-01-16 15:00:00
6:53 AM,-11.9,-18.0,74,30.75,10.0,East,4.6,-,N/A,,Clear,90,2012-01-16 15:53:00
8:53 AM,-11.9,-18.0,74,30.74,10.0,Calm,Calm,-,N/A,,Scattered Clouds,0,2012-01-16 17:53:00
9:53 AM,-11.9,-18.0,74,30.74,7.0,Calm,Calm,-,N/A,,Scattered Clouds,0,2012-01-16 18:53:00
10:13 AM,-9.4,-14.8,77,30.73,1.0,Calm,Calm,-,N/A,Fog,Light Freezing Fog,0,2012-01-16 19:13:00
10:18 AM,-9.4,-14.8,77,30.73,0.5,Calm,Calm,-,N/A,Fog,Light Freezing Fog,0,2012-01-16 19:18:00
10:53 AM,-7.1,-9.9,87,30.75,0.2,Calm,Calm,-,N/A,Fog,Light Freezing Fog,0,2012-01-16 19:53:00
11:53 AM,-7.1,-9.9,87,30.74,0.2,Calm,Calm,-,N/A,Fog,Light Freezing Fog,0,2012-01-16 20:53:00
12:26 PM,-5.8,-9.4,84,30.72,6.0,Calm,Calm,-,N/A,Fog,Light Freezing Fog,0,2012-01-16 21:26:00
12:53 PM,-5.1,-9.9,80,30.74,5.0,East,3.5,-,N/A,Fog,Light Freezing Fog,80,2012-01-16 21:53:00
1:29 PM,-2.2,-7.6,78,30.73,10.0,Calm,Calm,-,N/A,,Clear,0,2012-01-16 22:29:00
1:53 PM,-0.9,-7.1,75,30.74,10.0,Calm,Calm,-,N/A,,Clear,0,2012-01-16 22:53:00
2:53 PM,-0.0,-5.1,79,30.71,10.0,Calm,Calm,-,N/A,,Clear,0,2012-01-16 23:53:00
3:53 PM,-2.0,-7.1,79,30.69,10.0,Calm,Calm,-,N/A,,Clear,0,2012-01-17 00:53:00
4:53 PM,-5.1,-9.9,80,30.68,10.0,Calm,Calm,-,N/A,,Clear,0,2012-01-17 01:53:00
5:05 PM,-7.6,-13.0,77,30.66,10.0,East,4.6,-,N/A,,Partly Cloudy,80,2012-01-17 02:05:00
5:53 PM,-7.1,-11.0,83,30.67,10.0,Calm,Calm,-,N/A,,Clear,0,2012-01-17 02:53:00
6:53 PM,-8.0,-11.9,83,30.66,10.0,Calm,Calm,-,N/A,,Clear,0,2012-01-17 03:53:00
7:53 PM,-11.0,-16.1,78,30.64,7.0,Calm,Calm,-,N/A,,Clear,0,2012-01-17 04:53:00
8:53 PM,-11.9,-17.0,78,30.64,6.0,East,4.6,-,N/A,,Haze,90,2012-01-17 05:53:00
9:53 PM,-11.0,-16.1,78,30.64,7.0,Calm,Calm,-,N/A,,Clear,0,2012-01-17 06:53:00
10:53 PM,-9.9,-16.1,74,30.63,8.0,Calm,Calm,-,N/A,,Clear,0,2012-01-17 07:53:00
11:53 PM,-11.0,-17.0,75,30.62,9.0,Calm,Calm,-,N/A,,Clear,0,2012-01-17 08:53:00